Simultaneous Nadir Overpasses (SNOs) Predictions

Prediction of SNOs between NOAA-19 and TERRA Satellite Orbit:

Table of predicted SNOs for the next 14.0 days since TLE Epoch: 11/26/2016
Index Date (NOAA-19) Time (NOAA-19) Lat,Lon (NOAA-19) SZA (NOAA-19 ) Date (TERRA) Time (TERRA) Lat,Lon (TERRA) SZA (TERRA ) Distance(km) Time Diff (sec)
1 11/26/2016 18:02:23 -74.74, 97.77 83.95 11/26/2016 18:03:35 -74.66, 98.24 83.99 16.31 72
2 11/26/2016 18:53:24 74.53, -94.38 95.88 11/26/2016 18:53:03 74.54, -94.43 95.88 1.95 21
3 11/28/2016 23:36:22 74.63,-165.37 96.35 11/28/2016 23:37:19 74.64,-165.26 96.37 3.23 57
4 11/29/2016 00:27:17 -74.55, 2.12 83.72 11/29/2016 00:26:48 -74.57, 2.20 83.71 2.59 29
5 12/01/2016 05:10:14 -74.60, -68.68 83.34 12/01/2016 05:11:05 -74.61, -68.77 83.32 3.20 51
6 12/01/2016 06:01:17 74.52, 98.77 96.61 12/01/2016 06:00:32 74.53, 98.69 96.60 2.86 45
7 12/03/2016 10:44:15 74.64, 27.75 97.02 12/03/2016 10:44:48 74.63, 27.84 97.01 2.94 33
8 12/03/2016 11:35:11 -74.55,-164.74 83.06 12/03/2016 11:34:17 -74.56,-164.69 83.06 1.48 54
9 12/05/2016 16:18:08 -74.60, 124.44 82.74 12/05/2016 16:18:34 -74.60, 124.33 82.75 3.30 26
10 12/05/2016 17:09:10 74.54, -68.13 97.21 12/05/2016 17:08:01 74.52, -68.22 97.17 3.43 69
11 12/07/2016 21:52:07 74.62,-139.04 97.52 12/07/2016 21:52:17 74.61,-139.08 97.51 1.87 10




NCC Satellite Simultaneous Nadir Overpasses (SNOs) Prediction Service
